Weather in Chikhachevo

Russia / Pskov Oblast     57°17′08″N   29°54′14″E
temp.,
°C
wind,
m/s
gust,
m/s
humid.,
%
clouds,
%
prec.,
mm/h
press.,
hPa
HPBL,
m
28 september, tue
tue2800:00+6nne24955 0.0 103086
03:00+5nne24965 0.0 103087
06:00+5nne24975 0.0 103180
09:00+7ne25875 0.0 1031229
12:00+12ene346619 0.0 1031866
15:00+12e3363100 0.0 10321142
18:00+9e2676100 0.0 1033323
21:00+8ese2678100 0.0 1034243
29 september, wed
wed2900:00+8se287483 0.0 1035459
03:00+4se22886 0.0 103641
06:00+4se118435 0.0 103613
09:00+7ese257617 0.0 1036189
12:00+11sse235717 0.0 10361066
15:00+13se23518 0.0 10351262
18:00+9se116826 0.0 103411
21:00+6se12818 0.0 103510
30 september, thu
thu3000:00+4se22855 0.0 103512
03:00+3sse22875 0.0 103617
06:00+2sse22905 0.0 103528
09:00+6sse257511 0.0 1036174
12:00+11sse355311 0.0 1035709
15:00+13sse35475 0.0 10331045
18:00+9se25675 0.0 103292
21:00+6sse278027 0.0 1033118
1 october, fri
fri100:00+5sse28875 0.0 1033146
03:00+4sse28925 0.0 1032145
06:00+3sse299438 0.0 1032172
09:00+6sse3107716 0.0 1032291
12:00+12s4755100 0.0 1031702
15:00+12s3756100 0.0 1031825
18:00+11s2766100 0.0 1030276
21:00+10s2873100 0.0 1030319
2 october, sat
sat200:00+7s268413 0.0 1030120
03:00+8sse3779100 0.0 1029252
06:00+8sse3977100 0.0 1028305
09:00+8sse4117199 0.0 1028414
12:00+13s594924 0.0 1027780
15:00+15s594618 0.0 10251173
18:00+12s511577 0.0 1024665
21:00+10s413675 0.0 1025633